Wenatchee, WA
on Monday, November 19, 2012

Monday
Previous Day Next Day
Daily Summary
 ActualAverageRecord
Temperature
Mean Temperature °F 33°F  
Max Temperature 57°F 39°F 65°F (1962)
Min Temperature 43°F 27°F 4°F (1985)
Degree Days
Heating Degree Days 15 32  
Month to date heating degree days 425 547  
Since 1 July heating degree days 872 1503  
Cooling Degree Days 0 0  
Month to date cooling degree days 0 0  
Year to date cooling degree days 888 249  
Moisture
Dew Point 39°F   
Average Humidity 67    
Maximum Humidity 83    
Minimum Humidity 51    
Precipitation
Precipitation T in 0.08 in 1.03 in (1996)
Month to date precipitation 0.34 1.31  
Year to date precipitation 7.32 13.65  
Snow
Snow 0.00 in 0.30 in in ()
Month to date snowfall 3.2  
Since 1 July snowfall 3.3  
Since 1 September snowfall 3.3  
Snow Depth in   
Wind
Wind Speed 11 mph   
Max Wind Speed 26 mph   
Max Gust Speed 36 mph   
Visibility 10 miles   
Events Rain   

Key: T is trace of precipitation, MM is missing value
Source: NWS Daily Summary
Time(PST)TemperatureDew PointHumidity Pressure Visibility Wind DirectionWind SpeedGust SpeedPrecipitationEvents Conditions
12:55 AM 44.1°F 39.0°F 82% 29.70 in 10.0 miles East 13.8 mph 23.0 mph 0.00 in Rain Light Rain
1:55 AM 46.0°F 37.9°F 73% 29.68 in 10.0 miles ESE 16.1 mph 21.9 mph N/A   Mostly Cloudy
2:55 AM 46.9°F 37.9°F 71% 29.68 in 10.0 miles SE 15.0 mph 28.8 mph N/A   Overcast
3:55 AM 46.9°F 37.9°F 71% 29.69 in 10.0 miles SE 12.7 mph 18.4 mph 0.00 in   Overcast
4:55 AM 46.0°F 37.9°F 73% 29.66 in 10.0 miles SSE 12.7 mph - 0.00 in   Overcast
5:55 AM 46.9°F 39.0°F 74% 29.66 in 10.0 miles East 6.9 mph - 0.00 in Rain Light Rain
6:55 AM 46.0°F 39.0°F 76% 29.65 in 10.0 miles Calm Calm - 0.00 in   Mostly Cloudy
7:55 AM 46.9°F 39.0°F 74% 29.64 in 10.0 miles ESE 8.1 mph - 0.00 in   Overcast
8:55 AM 48.9°F 37.9°F 66% 29.62 in 10.0 miles ESE 12.7 mph 20.7 mph N/A   Overcast
9:55 AM 52.0°F 37.0°F 57% 29.60 in 10.0 miles SE 18.4 mph 27.6 mph N/A   Mostly Cloudy
10:55 AM 53.1°F 37.9°F 57% 29.58 in 10.0 miles East 11.5 mph 23.0 mph 0.00 in   Overcast
11:55 AM 53.1°F 39.0°F 59% 29.55 in 10.0 miles East 16.1 mph 24.2 mph N/A   Overcast
12:55 PM 55.0°F 37.9°F 53% 29.52 in 9.0 miles East 18.4 mph 29.9 mph N/A   Overcast
1:55 PM 57.0°F 39.0°F 51% 29.49 in 10.0 miles East 18.4 mph 32.2 mph 0.00 in   Overcast
2:55 PM 57.0°F 39.9°F 53% 29.47 in 10.0 miles East 21.9 mph 31.1 mph N/A   Overcast
3:55 PM 57.0°F 41.0°F 55% 29.52 in 10.0 miles East 11.5 mph 31.1 mph N/A   Overcast
4:27 PM 48.2°F 42.8°F 82% 29.55 in 10.0 miles NNW 10.4 mph - 0.00 in Rain Light Rain
4:55 PM 51.1°F 42.1°F 71% 29.57 in 10.0 miles NNW 8.1 mph - 0.00 in   Overcast
5:55 PM 46.0°F 41.0°F 83% 29.58 in 10.0 miles SSE 4.6 mph - 0.00 in   Overcast
7:55 PM 53.1°F 42.1°F 66% 29.58 in 10.0 miles ESE 15.0 mph 23.0 mph N/A   Overcast
8:55 PM 53.1°F 41.0°F 64% 29.59 in 10.0 miles East 6.9 mph 18.4 mph N/A   Overcast
9:55 PM 51.1°F 39.9°F 66% 29.60 in 10.0 miles ESE 6.9 mph - N/A   Clear
10:55 PM 51.1°F 39.0°F 63% 29.64 in 10.0 miles NNE 4.6 mph - N/A   Partly Cloudy
11:55 PM 45.0°F 39.0°F 80% 29.70 in 10.0 miles Calm Calm - N/A   Scattered Clouds
Moon Phase
Nov. 19 Nov. 20 Nov. 28 Dec. 06 Dec. 13
Sunrise:07:12 AM (PST) Moon Rise:12:07 PM (PST)11/19
Sunset:04:20 PM (PST) Moon Set:11:04 PM (PST)11/19

Copyright © 2014 The Weather Underground, Inc.